Weather observations for the past three days for
Pauls Valley, Pauls Valley Municipal Airport
Imperial (Metric)
Date Time (cdt) Wind (mph) Vis. (mi.) Weather Sky Cond. Temperature (ºF) Relative Humidity Wind Chill (°F) Heat Index (°F) Pressure Precipitation (in)
Air Dwpt 6 hour altimeter (in) sea level (mb) 1 hr 3 hr 6 hr
Max. Min.
18 02:35 N 3 10.00 Fair CLR 71.6 69.8 94% 30.06 0.0
18 02:15 Calm 10.00 Fair CLR 71.8 70 94% 30.07 0.0
18 01:55 Calm 10.00 Fair CLR 71.8 70.3 95% 30.07 0.0
18 01:35 N 3 10.00 Fair CLR 72.5 70.7 94% 30.07 0.0
18 01:15 N 5 10.00 Fair CLR 72.5 71.1 95% 30.07 0.0
18 00:55 N 5 10.00 Fair CLR 73 71.4 82.9 71.8 95% 30.08 0.0
18 00:35 NW 5 10.00 Fair CLR 73.6 71.4 93% 30.09 0.0
18 00:15 NW 3 10.00 Fair CLR 73.2 71.6 95% 30.08 0.0
17 23:55 Calm 10.00 Fair CLR 72.9 71.2 95% 30.08 0.0
17 23:35 Calm 10.00 Fair CLR 72 72 100% 30.07 0.0
17 23:15 Calm 10.00 Fair CLR 73.6 71.8 94% 30.07 0.0
17 22:55 Calm 10.00 Fair CLR 74.1 70.9 90% 30.07 0.0
17 22:35 Calm 10.00 Fair CLR 73.6 71.6 94% 30.06 0.0
17 22:15 Calm 10.00 Fair CLR 75.9 71.6 87% 76 30.06 0.0
17 21:55 Calm 10.00 Fair CLR 77 71.6 83% 78 30.06 0.0
17 21:35 Calm 10.00 Fair CLR 77.4 71.6 83% 79 30.05 0.0
17 21:15 Calm 10.00 Fair CLR 78.1 71.2 80% 80 30.05 0.0
17 20:55 Calm 10.00 Fair CLR 78.8 71.2 78% 82 30.04 0.0
17 20:35 N 3 10.00 Fair CLR 79.7 71.1 75% 83 30.03 0.0
17 20:15 N 3 10.00 Fair CLR 80.6 70.5 71% 84 30.03 0.0
17 19:55 N 7 10.00 Fair CLR 81.5 70.2 69% 85 30.02 0.0
17 19:35 NE 5 10.00 Fair CLR 82 69.6 66% 86 30.02 0.0
17 19:15 NE 7 10.00 Partly Cloudy SCT032 82.4 69.3 65% 86 30.02 0.0
17 18:55 N 9 10.00 Partly Cloudy SCT032 82.6 70 82.9 78.8 66% 87 30.02 0.0
17 18:35 N 9 10.00 Partly Cloudy SCT032 82.8 70.2 66% 87 30.01 0.0
17 18:15 NE 7 10.00 Fair CLR 82.2 70.2 67% 86 30.01 0.0
17 17:55 N 7 10.00 Partly Cloudy SCT023 81.9 70.3 68% 86 30.01 0.0
17 17:35 N 12 10.00 Partly Cloudy SCT023 81.3 70.5 70% 85 30.01 0.0
17 17:15 NW 12 10.00 Partly Cloudy SCT023 81 70 69% 84 30.02 0.0
17 16:55 N 8 10.00 Mostly Cloudy SCT023 SCT029 BKN038 80.4 71.6 75% 84 30.02 0.0
17 16:35 NW 5 10.00 Mostly Cloudy SCT021 BKN029 BKN036 79.2 70.7 75% 82 30.03 0.0
17 16:15 N 6 10.00 Mostly Cloudy SCT026 SCT030 BKN039 79.3 70 73% 82 30.03 0.0
17 15:55 NW 8 10.00 Overcast SCT029 BKN039 OVC048 79.7 69.1 70% 82 30.03 0.0
17 15:35 W 9 10.00 Mostly Cloudy SCT038 BKN044 81.1 69.6 68% 85 30.03 0.0
17 15:15 NW 8 10.00 Mostly Cloudy BKN040 BKN046 80.6 69.3 68% 84 30.03 0.0
17 14:55 NW 8 10.00 Partly Cloudy SCT047 SCT110 81.1 69.4 68% 84 30.04 0.0
17 14:35 NW 5 10.00 Mostly Cloudy SCT033 SCT047 BKN090 79.9 69.8 71% 83 30.05 0.0
17 14:15 W 6 10.00 Light Rain SCT030 BKN037 BKN043 79.9 70.2 72% 83 30.06 0.0
17 13:55 W 6 10.00 Mostly Cloudy SCT100 BKN120 79.9 68.9 69% 83 30.07 0.0
17 13:35 Calm 10.00 Mostly Cloudy SCT100 BKN120 79.5 69.1 71% 82 30.07 0.0
17 13:15 Calm 10.00 Mostly Cloudy BKN110 79.2 69.1 71% 82 30.06 0.0
17 12:55 Calm 10.00 Mostly Cloudy BKN100 78.8 68.7 78.8 73.4 71% 81 30.07 0.0
17 12:35 Calm 10.00 Light Rain SCT043 SCT060 BKN110 78.1 68.9 73% 80 30.07 0.0
17 12:15 SE 3 10.00 Partly Cloudy SCT110 78.1 69.3 74% 80 30.07 0.0
17 11:55 E 5 10.00 Partly Cloudy SCT025 SCT095 SCT120 78.6 68.9 72% 81 30.08 0.0
17 11:35 Calm 10.00 Fair CLR 77.9 68.5 73% 80 30.08 0.0
17 11:15 E 3 10.00 Mostly Cloudy BKN110 78.3 69.3 74% 81 30.08 0.0
17 10:55 N 3 10.00 Overcast OVC110 77.4 68.9 75% 79 30.08 0.0
17 10:35 NE 3 10.00 Mostly Cloudy BKN120 77.5 68.7 74% 79 30.05 0.0
17 10:15 Calm 10.00 Fair CLR 77.5 68.9 75% 79 30.05 0.0
17 09:55 SE 3 10.00 Fair CLR 77.9 69.8 76% 80 30.03 0.0
17 09:35 E 5 10.00 Fair CLR 76.8 69.4 78% 78 30.02 0.0
17 09:15 E 5 10.00 Fair CLR 76.1 69.6 80% 77 30.01 0.0
17 08:55 E 3 10.00 Fair CLR 75.6 69.1 80% 76 30.01 0.0
17 08:15 NE 3 10.00 Fair CLR 75 69.1 82% 75 29.99 0.0
17 07:55 NE 3 10.00 Fair CLR 74.5 69.1 83% 29.98 0.0
17 07:35 NE 3 10.00 Fair CLR 74.3 69.4 85% 29.97 0.0
17 07:15 Calm 10.00 Fair CLR 73.4 69.8 89% 29.96 0.0
17 06:55 Calm 10.00 Fair CLR 72.9 69.4 84.6 72.5 89% 29.96 0.0
17 06:35 Calm 10.00 Fair CLR 72.9 69.1 88% 29.97 0.0
17 06:15 Calm 10.00 Fair CLR 74.3 69.3 84% 29.96 0.0
17 05:55 Calm 10.00 Fair CLR 74.3 68.5 82% 29.96 0.0
17 05:35 Calm 10.00 Fair CLR 75.2 68.4 79% 76 29.97 0.0
17 05:15 N 6 10.00 Fair CLR 75.4 68.5 79% 76 29.97 0.0
17 04:55 N 9 10.00 Fair CLR 76.5 68.2 76% 78 29.98 0.0
17 04:35 N 8 10.00 Partly Cloudy SCT075 77.2 68.4 74% 79 30 0.0
17 04:15 N 12 10.00 Partly Cloudy SCT075 SCT100 SCT120 78.4 68 70% 81 30.01 0.0
17 03:35 NW 6 10.00 Light Drizzle SCT110 81.1 67.8 64% 84 29.98 0.0
17 03:15 NW 3 10.00 Light Rain SCT110 82 67.3 61% 85 29.97 0.0
17 02:55 NW 3 10.00 Mostly Cloudy SCT090 BKN120 83.3 66.4 57% 86 29.97 0.0
17 02:35 NW 8 10.00 Mostly Cloudy BKN090 BKN120 84.4 65.7 53% 86 29.96 0.0
17 02:15 NW 6 G 18 10.00 Fair CLR 84.2 65.7 54% 86 29.95 0.0
17 01:55 SW 6 10.00 Fair CLR 83.8 64.9 53% 86 29.92 0.0
17 01:35 SW 3 10.00 Fair CLR 82.2 65.8 58% 84 29.91 0.0
17 01:15 SW 3 10.00 Fair CLR 81.7 65.5 58% 84 29.9 0.0
17 00:55 SE 3 10.00 Fair CLR 81.3 66.2 91.4 81.3 60% 84 29.88 0.0
17 00:35 S 3 10.00 Fair CLR 81.5 66.9 61% 84 29.88 0.0
17 00:15 S 3 10.00 Fair CLR 82.4 67.1 60% 85 29.88 0.0
16 23:55 S 3 10.00 Fair CLR 81.7 68 63% 85 29.88 0.0
16 23:35 Calm 10.00 Fair CLR 81.5 68.7 65% 85 29.87 0.0
16 23:15 S 3 10.00 Fair CLR 82.4 69.1 64% 86 29.87 0.0
16 22:55 S 3 10.00 Fair CLR 82.4 69.8 66% 86 29.86 0.0
16 22:35 S 3 10.00 Fair CLR 83.1 70.7 66% 88 29.85 0.0
16 22:15 SE 5 10.00 Fair CLR 82.8 71.8 70% 88 29.85 0.0
16 21:55 S 3 10.00 Fair CLR 83.8 72.1 68% 90 29.85 0.0
16 21:35 S 3 10.00 Fair CLR 84.2 72.9 69% 91 29.85 0.0
16 21:15 S 3 10.00 Fair CLR 84.6 72.7 68% 91 29.85 0.0
16 20:55 Calm 10.00 Fair CLR 84.9 72.5 66% 91 29.85 0.0
16 20:35 S 3 10.00 Fair CLR 86.7 72.1 62% 93 29.85 0.0
16 20:15 Calm 10.00 Fair CLR 88.2 71.6 58% 95 29.84 0.0
16 19:55 SE 3 10.00 Fair CLR 90 71.1 54% 96 29.84 0.0
16 19:35 SE 5 10.00 Fair CLR 90.9 71.2 53% 98 29.84 0.0
16 19:15 SE 6 10.00 Fair CLR 91 72.5 55% 99 29.84 0.0
16 18:55 Calm 10.00 Fair CLR 90.9 73 93.9 88.9 56% 99 29.85 0.0
16 18:35 SE 5 10.00 Fair CLR 91.4 73.4 56% 100 29.85 0.0
16 18:15 SE 5 10.00 Fair CLR 90.5 74.5 59% 101 29.86 0.0
16 17:55 SE 3 10.00 Fair CLR 89.6 74.5 61% 99 29.86 0.0
16 17:35 Calm 10.00 Fair CLR 89.1 74.1 61% 98 29.86 0.0
16 17:15 Calm 10.00 Fair CLR 89.2 73.8 60% 98 29.86 0.0
16 16:55 SE 3 10.00 Partly Cloudy SCT120 89.6 72.9 58% 98 29.86 0.0
16 16:35 S 3 10.00 Partly Cloudy SCT120 89.8 73 58% 98 29.85 0.0
16 16:15 S 3 10.00 Fair CLR 90 73.4 58% 99 29.86 0.0
16 15:55 S 3 10.00 Fair CLR 90.7 72.9 56% 99 29.86 0.0
16 15:35 S 6 10.00 Fair CLR 91.4 72.9 55% 100 29.86 0.0
16 15:15 S 8 10.00 Fair CLR 91.6 72.7 54% 100 29.87 0.0
16 14:55 S 9 10.00 Fair CLR 92.3 71.8 51% 100 29.86 0.0
16 14:35 S 13 G 17 10.00 Fair CLR 92.3 71.1 50% 99 29.86 0.0
16 14:15 S 12 10.00 Fair CLR 92.8 70.2 48% 99 29.87 0.0
16 13:55 SW 15 G 21 10.00 Fair CLR 93.2 69.8 47% 99 29.88 0.0
16 13:35 SW 17 G 21 10.00 Fair CLR 93.7 70.3 47% 100 29.88 0.0
16 13:15 SW 15 10.00 Fair CLR 93.2 70.5 48% 100 29.89 0.0
16 12:55 SW 10 10.00 Fair CLR 93 70.5 93 74.7 48% 100 29.9 0.0
16 12:35 S 14 G 20 10.00 Fair CLR 91.9 69.6 48% 97 29.89 0.0
16 12:15 SW 14 G 18 10.00 Fair CLR 92.3 70.3 49% 98 29.9 0.0
16 11:55 SW 12 G 21 10.00 Fair CLR 90.5 69.1 49% 95 29.91 0.0
16 11:35 SW 15 10.00 Fair CLR 89.8 69.4 51% 95 29.91 0.0
16 11:15 SW 12 G 21 10.00 Fair CLR 89.1 68.5 51% 93 29.91 0.0
16 10:55 SW 14 G 18 10.00 Fair CLR 88.2 68.7 53% 92 29.91 0.0
16 10:35 SW 12 10.00 Fair CLR 86.9 68.9 55% 91 29.91 0.0
16 10:15 S 10 G 17 10.00 Fair CLR 85.3 68.4 57% 89 29.91 0.0
16 09:55 SW 13 10.00 Fair CLR 84.9 68.2 57% 88 29.9 0.0
16 09:35 S 15 G 22 10.00 Fair CLR 84.4 66.9 56% 87 29.9 0.0
16 09:15 S 10 G 17 10.00 Fair CLR 84.7 67.8 57% 88 29.91 0.0
16 08:55 S 12 10.00 Fair CLR 83.5 68 60% 87 29.91 0.0
16 08:35 S 9 10.00 Fair CLR 81.3 69.1 66% 85 29.91 0.0
16 08:15 S 5 10.00 Fair CLR 79.2 70 74% 82 29.9 0.0
16 07:55 S 6 10.00 Fair CLR 77.5 69.8 77% 79 29.9 0.0
16 07:35 S 3 10.00 Fair CLR 76.1 70 81% 77 29.9 0.0
16 07:15 S 3 10.00 Fair CLR 75.2 69.8 83% 75 29.89 0.0
16 06:55 S 3 10.00 Fair CLR 74.7 69.8 82.4 74.3 85% 29.89 0.0
16 06:35 S 3 10.00 Fair CLR 74.5 69.4 84% 29.87 0.0
16 06:15 S 5 10.00 Fair CLR 74.8 69.3 83% 29.87 0.0
16 05:55 S 3 10.00 Fair CLR 75.4 69.1 81% 76 29.86 0.0
16 05:35 S 3 10.00 Fair CLR 76.1 68.9 78% 77 29.86 0.0
16 05:15 S 3 10.00 Fair CLR 76.1 69.1 79% 77 29.86 0.0
16 04:55 S 3 10.00 Fair CLR 75.4 69.3 81% 76 29.85 0.0
16 04:35 Calm 10.00 Fair CLR 75.4 69.4 82% 76 29.85 0.0
16 04:15 Calm 10.00 Fair CLR 75.6 69.8 82% 76 29.85 0.0
16 03:55 Calm 10.00 Fair CLR 75.7 69.8 82% 76 29.85 0.0
16 03:35 SE 3 10.00 Fair CLR 76.1 69.8 81% 77 29.86 0.0
16 03:15 S 3 10.00 Fair CLR 76.8 69.8 79% 78 29.86 0.0
16 02:55 S 3 10.00 Fair CLR 77.7 69.4 76% 80 29.87 0.0
16 02:35 S 3 10.00 Fair CLR 79 69.1 72% 82 29.87 0.0
16 02:15 S 3 10.00 Fair CLR 79.9 68.5 68% 83 29.86 0.0
16 01:55 S 5 10.00 Fair CLR 81.3 68.4 65% 84 29.87 0.0
16 01:35 S 5 10.00 Fair CLR 81.7 68.4 64% 85 29.88 0.0
16 01:15 S 5 10.00 Fair CLR 82.4 68.7 63% 86 29.88 0.0
16 00:55 S 3 10.00 Fair CLR 82.4 68.9 93.7 81.5 64% 86 29.88 0.0
16 00:35 S 5 10.00 Fair CLR 82.8 69.3 64% 86 29.87 0.0
16 00:15 S 5 10.00 Fair CLR 83.1 69.4 63% 87 29.87 0.0
15 23:55 S 5 10.00 Fair CLR 82 70.2 67% 86 29.87 0.0
15 23:35 S 3 10.00 Fair CLR 81.5 70.9 70% 86 29.86 0.0
15 23:15 Calm 10.00 Fair CLR 82 71.1 69% 86 29.87 0.0
15 22:55 S 3 10.00 Fair CLR 82.4 71.6 70% 87 29.87 0.0
15 22:35 S 3 10.00 Fair CLR 83.3 71.6 68% 88 29.86 0.0
15 22:15 Calm 10.00 Fair CLR 83.7 72 68% 89 29.86 0.0
15 21:55 S 3 10.00 Fair CLR 84.6 72 66% 90 29.85 0.0
15 21:35 S 3 10.00 Fair CLR 85.1 71.8 64% 91 29.85 0.0
15 21:15 S 3 10.00 Fair CLR 85.6 71.8 63% 92 29.85 0.0
15 20:55 Calm 10.00 Fair CLR 86.9 71.8 61% 93 29.85 0.0
15 20:35 Calm 10.00 Fair CLR 88.2 71.6 58% 95 29.85 0.0
15 20:15 Calm 10.00 Fair CLR 89.6 71.4 55% 96 29.85 0.0
15 19:55 Calm 10.00 Fair CLR 91.2 70.9 51% 98 29.85 0.0
15 19:35 S 3 10.00 Fair CLR 92.5 70 48% 98 29.86 0.0
15 19:15 S 6 10.00 Fair CLR 93.2 70.5 48% 100 29.86 0.0
15 18:55 S 7 10.00 Fair CLR 94.1 70.3 96.1 91.8 46% 101 29.87 0.0
15 18:35 S 7 10.00 Fair CLR 94.3 70.2 46% 101 29.87 0.0
15 18:15 S 10 10.00 Fair CLR 94.6 69.6 44% 101 29.88 0.0
15 17:55 S 8 10.00 Fair CLR 95 69.4 43% 101 29.88 0.0
15 17:35 SW 15 G 21 10.00 Fair CLR 95.2 68.9 42% 101 29.88 0.0
15 17:15 SW 12 G 18 10.00 Fair CLR 95.5 68.2 41% 101 29.88 0.0
15 16:55 SW 15 G 21 10.00 Fair CLR 95.9 66.4 38% 100 29.89 0.0
15 16:35 SW 12 10.00 Fair CLR 95.9 68 40% 101 29.89 0.0
15 16:15 S 13 G 18 10.00 Fair CLR 95.9 69.6 43% 102 29.9 0.0
15 15:55 S 12 G 21 10.00 Fair CLR 95.5 70.2 44% 102 29.9 0.0
15 15:35 S 15 G 20 10.00 Fair CLR 95.2 70.3 45% 102 29.91 0.0
15 15:15 S 10 G 21 10.00 Fair CLR 95.9 70.7 44% 103 29.91 0.0
15 14:55 S 15 G 22 10.00 Fair CLR 95 70.3 45% 102 29.92 0.0
15 14:35 S 12 G 21 10.00 Fair CLR 95.2 71.2 46% 103 29.93 0.0
15 14:15 S 10 G 16 10.00 Fair CLR 94.5 72 48% 103 29.93 0.0
15 13:55 S 10 G 17 10.00 Fair CLR 93.9 72 49% 102 29.94 0.0
15 13:35 S 13 G 17 10.00 Fair CLR 93 71.6 50% 101 29.95 0.0
15 13:15 S 9 10.00 Fair CLR 92.8 72.3 51% 101 29.96 0.0
15 12:55 S 8 10.00 Fair CLR 91.8 72.3 91.8 76.3 53% 100 29.97 0.0
15 12:35 SW 9 10.00 Fair CLR 91.2 71.6 53% 98 29.97 0.0
15 12:15 S 9 10.00 Fair CLR 90.5 71.8 54% 98 29.98 0.0
15 11:55 S 12 G 16 10.00 Fair CLR 89.6 71.2 55% 96 29.98 0.0
15 11:35 S 10 10.00 Fair CLR 88.9 70.9 55% 95 29.98 0.0
15 11:15 SW 13 G 20 10.00 Fair CLR 88.7 70.5 55% 94 29.98 0.0
15 10:55 S 15 G 18 10.00 Fair CLR 87.4 69.8 56% 92 29.99 0.0
15 10:35 SW 12 G 17 10.00 Fair CLR 86.9 69.8 57% 92 30 0.0
15 10:15 SW 12 10.00 Fair CLR 86.2 70.2 59% 91 30 0.0
15 09:55 S 13 G 16 10.00 Fair CLR 84.9 69.8 61% 89 30 0.0
15 09:35 SW 9 10.00 Fair CLR 83.8 69.3 62% 88 30.01 0.0
15 09:15 SW 14 G 18 10.00 Fair CLR 83.3 68.5 61% 87 30.01 0.0
15 08:55 SW 10 10.00 Fair CLR 82.9 68.5 62% 86 30.01 0.0
15 08:35 S 10 10.00 Fair CLR 81.7 68.9 65% 85 30 0.0
15 08:15 S 6 10.00 Fair CLR 79 69.8 74% 82 30 0.0
15 07:55 S 6 10.00 Fair CLR 77.4 69.8 78% 79 29.99 0.0
15 07:35 S 3 10.00 Fair CLR 76.6 69.3 78% 78 29.99 0.0
15 07:15 SE 5 10.00 Fair CLR 76.5 68.7 77% 78 29.98 0.0
15 06:55 S 3 10.00 Fair CLR 76.3 68.2 79.7 76.3 76% 78 29.98 0.0
15 06:35 S 3 10.00 Fair CLR 77 68.2 74% 79 29.98 0.0
15 06:15 S 6 10.00 Fair CLR 78.1 68 71% 80 29.97 0.0
15 05:55 S 6 10.00 Fair CLR 77 68.5 75% 79 29.97 0.0
15 05:35 S 6 10.00 Fair CLR 76.6 68.9 77% 78 29.97 0.0
15 05:15 S 3 10.00 Fair CLR 77 68.9 76% 79 29.97 0.0
15 04:55 S 5 10.00 Fair CLR 78.3 68.4 72% 80 29.96 0.0
15 04:35 S 5 10.00 Fair CLR 78.8 68.2 70% 81 29.96 0.0
15 04:15 S 5 10.00 Fair CLR 79.2 68.4 70% 82 29.96 0.0
15 03:55 S 7 10.00 Fair CLR 79.7 68.4 68% 82 29.96 0.0
15 03:35 S 7 10.00 Fair CLR 79.7 68.5 69% 82 29.96 0.0
15 03:15 S 6 10.00 Fair CLR 77.9 68.9 74% 80 29.97 0.0
15 02:55 S 5 10.00 Fair CLR 77.7 69.1 75% 80 29.97 0.0
Date Time (cdt) Wind (mph) Vis. (mi.) Weather Sky Cond. Air Dwpt Max. Min. Relative Humidity Wind Chill (°F) Heat Index (°F) altimeter (in) sea level (mb) 1 hr 3 hr 6 hr
6 hour
Temperature (ºF) Pressure Precipitation (in)